COSMOS 2228

Last updated on Sun Aug 31 2025 00:02:14 GMT+0000 (Coordinated Universal Time)

1 22286U 92094A 25242.23878730 .00003595 00000+0 31757-3 0 9994 2 22286 82.5158 60.4516 0017382 223.5444 136.4407 14.95983029747427
UTC large
Height (km)
Speed (km/s)
/
Latitude / Longitude
Inclination (degrees)
Orbital Period (minutes)
Azimuth
Elevation
Range (km)
Doppler Factor

Next 0 passes for location: London (51.5072 / 0.1276)

Sorry there are no passes over London.